Weather History for Tallahassee, FL

Change the Weather History Date:

Thursday, December 29, 2011

  Actual Average Record
Temperature  
Mean Temperature 51 °F 51 °F  
Max Temperature 66 °F 63 °F 80 °F (1984)
Min Temperature 35 °F 39 °F 12 °F (1894)
Degree Days  
Heating Degree Days 14    
Month to date heating degree days 242  
Since 1 July heating degree days 475  
Cooling Degree Days 0    
Month to date cooling degree days 11  
Year to date cooling degree days 2938  
Growing Degree Days 1 (Base 50)    
Moisture  
Dew Point 41 °F    
Average Humidity 69    
Maximum Humidity 93    
Minimum Humidity 44    
Precipitation  
Precipitation 0.00 in 0.12 in 1.50 in (1893)
Month to date precipitation 4.40 3.65  
Year to date precipitation 34.81 58.98  
Sea Level Pressure  
Sea Level Pressure 30.12 in    
Wind  
Wind Speed 2 mph (SW)    
Max Wind Speed 10 mph    
Max Gust Speed 14 mph    
Visibility 10 miles    
Events Fog    
T = Trace of Precipitation, MM = Missing Value Source: NWS Daily Summary

Daily Weather History Graph

Daily Weather History Graph

Search for Another Location

Airport:

Trip Planner

Search our weather history database for the weather conditions in past years. The results will help you decide how hot, cold, wet, or windy it might be!

Date:

Astronomy

Dec. 29, 2011 Rise Set
Actual Time 7:33 AM EST 5:45 PM EST
Civil Twilight 7:06 AM EST 6:12 PM EST
Nautical Twilight 6:36 AM EST 6:42 PM EST
Astronomical Twilight 6:07 AM EST 7:11 PM EST
Moon 10:48 AM EST (12/29) 10:57 PM EST (12/29)
Length of Visible Light 11h 05m
Length of Day
10h 12m
Waxing Crescent, 26% of the Moon is Illuminated
Dec 29
Waxing Crescent
Jan 1
First Quarter
Jan 9
Full
Jan 16
Last Quarter
Jan 23
New

Hourly Weather History & Observations

Time (EST) Temp. Dew Point Humidity Pressure Visibility Wind Dir Wind Speed Gust Speed Precip Events Conditions
12:53 AM 41.0 °F 37.9 °F 89% 30.16 in 10.0 mi Calm Calm - N/A   Clear
1:53 AM 41.0 °F 37.9 °F 89% 30.14 in 10.0 mi Calm Calm - N/A   Clear
2:53 AM 39.9 °F 37.9 °F 93% 30.13 in 10.0 mi Calm Calm - N/A   Clear
3:53 AM 39.0 °F 37.0 °F 93% 30.13 in 10.0 mi Calm Calm - N/A   Clear
4:53 AM 37.9 °F 36.0 °F 93% 30.11 in 10.0 mi Calm Calm - N/A   Clear
5:53 AM 36.0 °F 34.0 °F 93% 30.12 in 10.0 mi Calm Calm - N/A   Clear
6:53 AM 37.0 °F 35.1 °F 93% 30.15 in 10.0 mi Calm Calm - N/A   Clear
7:53 AM 36.0 °F 33.1 °F 89% 30.16 in 10.0 mi Calm Calm - N/A Fog Patches of Fog
8:53 AM 41.0 °F 37.9 °F 89% 30.18 in 10.0 mi Calm Calm - N/A   Clear
9:53 AM 50.0 °F 42.8 °F 76% 30.19 in 10.0 mi Calm Calm - N/A   Partly Cloudy
10:53 AM 57.0 °F 39.9 °F 53% 30.18 in 10.0 mi Calm Calm - N/A   Partly Cloudy
11:53 AM 60.8 °F 39.2 °F 45% 30.14 in 10.0 mi ENE 3.5 mph - N/A   Partly Cloudy
12:53 PM 63.0 °F 42.1 °F 46% 30.10 in 10.0 mi Variable 3.5 mph - N/A   Partly Cloudy
1:53 PM 64.9 °F 43.0 °F 45% 30.08 in 10.0 mi WNW 4.6 mph - N/A   Partly Cloudy
2:53 PM 66.0 °F 45.0 °F 47% 30.06 in 10.0 mi WSW 9.2 mph - N/A   Partly Cloudy
3:53 PM 64.0 °F 45.0 °F 50% 30.07 in 10.0 mi West 4.6 mph - N/A   Mostly Cloudy
4:53 PM 62.6 °F 46.4 °F 55% 30.07 in 10.0 mi South 8.1 mph - N/A   Scattered Clouds
5:53 PM 60.1 °F 46.9 °F 62% 30.08 in 10.0 mi South 5.8 mph - N/A   Mostly Cloudy
6:53 PM 57.9 °F 48.0 °F 70% 30.10 in 10.0 mi SSW 8.1 mph - N/A   Overcast
7:53 PM 55.9 °F 48.0 °F 75% 30.10 in 10.0 mi Calm Calm - N/A   Scattered Clouds
8:53 PM 51.1 °F 46.9 °F 86% 30.10 in 10.0 mi Calm Calm - N/A   Clear
9:53 PM 48.0 °F 45.0 °F 89% 30.11 in 10.0 mi Calm Calm - N/A   Clear
10:53 PM 46.9 °F 44.1 °F 90% 30.11 in 10.0 mi Calm Calm - N/A   Clear
11:53 PM 48.2 °F 44.6 °F 87% 30.11 in 10.0 mi Calm Calm - N/A   Overcast